owner,sensor,date,latitude,longitude,vertical_datum,wind_speed,wind_to_direction,wind_speed_of_gust,qcFlag 
COMPS,ioos:station:USF.COMPS:C12:1,2013-10-01T00:29:00Z,27.4980,-83.7220,3.0,5.0,50.0,-9999.0,'1111122,1111122,1111122' 
COMPS,ioos:station:USF.COMPS:C12:1,2013-10-01T01:29:00Z,27.4980,-83.7220,3.0,5.0,70.0,-9999.0,'1111122,1111122,1111122' 
COMPS,ioos:station:USF.COMPS:C12:1,2013-10-01T02:29:00Z,27.4980,-83.7220,3.0,5.0,80.0,-9999.0,'1111122,1111122,1111122' 
COMPS,ioos:station:USF.COMPS:C12:1,2013-10-01T03:29:00Z,27.4980,-83.7220,3.0,5.0,80.0,-9999.0,'1111122,1111122,1111122' 
COMPS,ioos:station:USF.COMPS:C12:1,2013-10-01T05:29:00Z,27.4980,-83.7220,3.0,6.0,80.0,-9999.0,'1111122,1111122,1111122' 
COMPS,ioos:station:USF.COMPS:C12:1,2013-10-01T06:29:00Z,27.4980,-83.7220,3.0,6.0,100.0,-9999.0,'1111122,1111122,1111122' 
COMPS,ioos:station:USF.COMPS:C12:1,2013-10-01T07:29:00Z,27.4980,-83.7220,3.0,6.0,130.0,-9999.0,'1111122,1111122,1111122' 
COMPS,ioos:station:USF.COMPS:C12:1,2013-10-01T08:29:00Z,27.4980,-83.7220,3.0,5.0,160.0,-9999.0,'1111122,1111122,1111122' 
COMPS,ioos:station:USF.COMPS:C12:1,2013-10-01T09:29:00Z,27.4980,-83.7220,3.0,4.0,170.0,-9999.0,'1111122,1111122,1111122' 
COMPS,ioos:station:USF.COMPS:C12:1,2013-10-01T10:29:00Z,27.4980,-83.7220,3.0,4.0,140.0,-9999.0,'1111122,1111122,1111122' 
COMPS,ioos:station:USF.COMPS:C12:1,2013-10-01T11:29:00Z,27.4980,-83.7220,3.0,5.0,130.0,-9999.0,'1111122,1111122,1111122' 
COMPS,ioos:station:USF.COMPS:C12:1,2013-10-01T12:29:00Z,27.4980,-83.7220,3.0,4.0,130.0,-9999.0,'1111122,1111122,1111122' 
COMPS,ioos:station:USF.COMPS:C12:1,2013-10-01T13:29:00Z,27.4980,-83.7220,3.0,4.0,140.0,-9999.0,'1111122,1111122,1111122' 
COMPS,ioos:station:USF.COMPS:C12:1,2013-10-01T15:29:00Z,27.4980,-83.7220,3.0,6.0,100.0,-9999.0,'1111122,1111122,1111122' 
COMPS,ioos:station:USF.COMPS:C12:1,2013-10-01T16:29:00Z,27.4980,-83.7220,3.0,6.0,100.0,-9999.0,'1111122,1111122,1111122' 
COMPS,ioos:station:USF.COMPS:C12:1,2013-10-01T17:29:00Z,27.4980,-83.7220,3.0,6.0,100.0,-9999.0,'1111122,1111122,1111122' 
COMPS,ioos:station:USF.COMPS:C12:1,2013-10-01T18:29:00Z,27.4980,-83.7220,3.0,6.0,110.0,-9999.0,'1111122,1111122,1111122' 
COMPS,ioos:station:USF.COMPS:C12:1,2013-10-01T19:29:00Z,27.4980,-83.7220,3.0,5.0,100.0,-9999.0,'1111122,1111122,1111122' 
COMPS,ioos:station:USF.COMPS:C12:1,2013-10-01T20:29:00Z,27.4980,-83.7220,3.0,4.0,100.0,-9999.0,'1111122,1111122,1111122' 
COMPS,ioos:station:USF.COMPS:C12:1,2013-10-01T21:29:00Z,27.4980,-83.7220,3.0,3.0,90.0,-9999.0,'1111122,1111122,1111122' 
COMPS,ioos:station:USF.COMPS:C12:1,2013-10-01T23:29:00Z,27.4980,-83.7220,3.0,2.0,60.0,-9999.0,'1111122,1111122,1111122' 
COMPS,ioos:station:USF.COMPS:C12:1,2013-10-02T00:29:00Z,27.4980,-83.7220,3.0,3.0,40.0,-9999.0,'1111122,1111122,1111122' 
COMPS,ioos:station:USF.COMPS:C12:1,2013-10-02T01:29:00Z,27.4980,-83.7220,3.0,4.0,40.0,-9999.0,'1111122,1111122,1111122' 
COMPS,ioos:station:USF.COMPS:C12:1,2013-10-02T02:29:00Z,27.4980,-83.7220,3.0,5.0,40.0,-9999.0,'1111122,1111122,1111122' 
COMPS,ioos:station:USF.COMPS:C12:1,2013-10-02T03:29:00Z,27.4980,-83.7220,3.0,7.0,50.0,-9999.0,'1111122,1111122,1111122' 
COMPS,ioos:station:USF.COMPS:C12:1,2013-10-02T04:29:00Z,27.4980,-83.7220,3.0,10.0,100.0,-9999.0,'1111122,1111122,1111122' 
COMPS,ioos:station:USF.COMPS:C12:1,2013-10-02T05:29:00Z,27.4980,-83.7220,3.0,10.0,100.0,-9999.0,'1111122,1111122,1111122' 
COMPS,ioos:station:USF.COMPS:C12:1,2013-10-02T06:29:00Z,27.4980,-83.7220,3.0,10.0,100.0,-9999.0,'1111122,1111122,1111122' 
COMPS,ioos:station:USF.COMPS:C12:1,2013-10-02T07:29:00Z,27.4980,-83.7220,3.0,9.0,100.0,-9999.0,'1111122,1111122,1111122' 
COMPS,ioos:station:USF.COMPS:C12:1,2013-10-02T08:29:00Z,27.4980,-83.7220,3.0,9.0,110.0,-9999.0,'1111122,1111122,1111122' 
COMPS,ioos:station:USF.COMPS:C12:1,2013-10-02T09:29:00Z,27.4980,-83.7220,3.0,9.0,100.0,-9999.0,'1111122,1111122,1111122' 
COMPS,ioos:station:USF.COMPS:C12:1,2013-10-02T10:29:00Z,27.4980,-83.7220,3.0,8.0,100.0,-9999.0,'1111122,1111122,1111122' 
COMPS,ioos:station:USF.COMPS:C12:1,2013-10-02T11:29:00Z,27.4980,-83.7220,3.0,8.0,90.0,-9999.0,'1111122,1111122,1111122' 
COMPS,ioos:station:USF.COMPS:C12:1,2013-10-02T12:29:00Z,27.4980,-83.7220,3.0,8.0,90.0,-9999.0,'1111122,1111122,1111122' 
COMPS,ioos:station:USF.COMPS:C12:1,2013-10-02T13:29:00Z,27.4980,-83.7220,3.0,8.0,90.0,-9999.0,'1111122,1111122,1111122' 
COMPS,ioos:station:USF.COMPS:C12:1,2013-10-02T14:29:00Z,27.4980,-83.7220,3.0,9.0,100.0,-9999.0,'1111122,1111122,1111122' 
COMPS,ioos:station:USF.COMPS:C12:1,2013-10-02T15:29:00Z,27.4980,-83.7220,3.0,8.0,90.0,-9999.0,'1111122,1111122,1111122' 
COMPS,ioos:station:USF.COMPS:C12:1,2013-10-02T16:29:00Z,27.4980,-83.7220,3.0,7.0,90.0,-9999.0,'1111122,1111122,1111122' 
COMPS,ioos:station:USF.COMPS:C12:1,2013-10-02T17:29:00Z,27.4980,-83.7220,3.0,7.0,90.0,-9999.0,'1111122,1111122,1111122' 
COMPS,ioos:station:USF.COMPS:C12:1,2013-10-02T18:29:00Z,27.4980,-83.7220,3.0,6.0,80.0,-9999.0,'1111122,1111122,1111122' 
COMPS,ioos:station:USF.COMPS:C12:1,2013-10-02T19:29:00Z,27.4980,-83.7220,3.0,5.0,80.0,-9999.0,'1111122,1111122,1111122' 
COMPS,ioos:station:USF.COMPS:C12:1,2013-10-02T20:29:00Z,27.4980,-83.7220,3.0,5.0,70.0,-9999.0,'1111122,1111122,1111122' 
COMPS,ioos:station:USF.COMPS:C12:1,2013-10-02T21:29:00Z,27.4980,-83.7220,3.0,5.0,60.0,-9999.0,'1111122,1111122,1111122' 
COMPS,ioos:station:USF.COMPS:C12:1,2013-10-02T23:29:00Z,27.4980,-83.7220,3.0,6.0,30.0,-9999.0,'1111122,1111122,1111122' 
COMPS,ioos:station:USF.COMPS:C12:1,2013-10-03T00:29:00Z,27.4980,-83.7220,3.0,7.0,40.0,-9999.0,'1111122,1111122,1111122' 
COMPS,ioos:station:USF.COMPS:C12:1,2013-10-03T01:29:00Z,27.4980,-83.7220,3.0,7.0,50.0,-9999.0,'1111122,1111122,1111122' 
COMPS,ioos:station:USF.COMPS:C12:1,2013-10-03T02:29:00Z,27.4980,-83.7220,3.0,8.0,90.0,-9999.0,'1111122,1111122,1111122' 
COMPS,ioos:station:USF.COMPS:C12:1,2013-10-03T03:29:00Z,27.4980,-83.7220,3.0,9.0,130.0,-9999.0,'1111122,1111122,1111122' 
COMPS,ioos:station:USF.COMPS:C12:1,2013-10-03T04:29:00Z,27.4980,-83.7220,3.0,8.0,120.0,-9999.0,'1111122,1111122,1111122' 
COMPS,ioos:station:USF.COMPS:C12:1,2013-10-03T05:29:00Z,27.4980,-83.7220,3.0,8.0,110.0,-9999.0,'1111122,1111122,1111122' 
COMPS,ioos:station:USF.COMPS:C12:1,2013-10-03T06:29:00Z,27.4980,-83.7220,3.0,9.0,100.0,-9999.0,'1111122,1111122,1111122' 
COMPS,ioos:station:USF.COMPS:C12:1,2013-10-03T07:29:00Z,27.4980,-83.7220,3.0,8.0,110.0,-9999.0,'1111122,1111122,1111122' 
COMPS,ioos:station:USF.COMPS:C12:1,2013-10-03T08:29:00Z,27.4980,-83.7220,3.0,8.0,90.0,-9999.0,'1111122,1111122,1111122' 
COMPS,ioos:station:USF.COMPS:C12:1,2013-10-03T09:29:00Z,27.4980,-83.7220,3.0,9.0,90.0,-9999.0,'1111122,1111122,1111122' 
COMPS,ioos:station:USF.COMPS:C12:1,2013-10-03T10:29:00Z,27.4980,-83.7220,3.0,8.0,90.0,-9999.0,'1111122,1111122,1111122' 
COMPS,ioos:station:USF.COMPS:C12:1,2013-10-03T11:29:00Z,27.4980,-83.7220,3.0,8.0,100.0,-9999.0,'1111122,1111122,1111122' 
COMPS,ioos:station:USF.COMPS:C12:1,2013-10-03T12:29:00Z,27.4980,-83.7220,3.0,8.0,90.0,-9999.0,'1111122,1111122,1111122' 
COMPS,ioos:station:USF.COMPS:C12:1,2013-10-03T13:29:00Z,27.4980,-83.7220,3.0,8.0,100.0,-9999.0,'1111122,1111122,1111122' 
COMPS,ioos:station:USF.COMPS:C12:1,2013-10-03T14:29:00Z,27.4980,-83.7220,3.0,8.0,100.0,-9999.0,'1111122,1111122,1111122' 
COMPS,ioos:station:USF.COMPS:C12:1,2013-10-03T15:29:00Z,27.4980,-83.7220,3.0,8.0,100.0,-9999.0,'1111122,1111122,1111122' 
COMPS,ioos:station:USF.COMPS:C12:1,2013-10-03T16:29:00Z,27.4980,-83.7220,3.0,7.0,100.0,-9999.0,'1111122,1111122,1111122' 
COMPS,ioos:station:USF.COMPS:C12:1,2013-10-03T17:29:00Z,27.4980,-83.7220,3.0,6.0,110.0,-9999.0,'1111122,1111122,1111122' 
COMPS,ioos:station:USF.COMPS:C12:1,2013-10-03T18:29:00Z,27.4980,-83.7220,3.0,7.0,120.0,-9999.0,'1111122,1111122,1111122' 
COMPS,ioos:station:USF.COMPS:C12:1,2013-10-03T19:29:00Z,27.4980,-83.7220,3.0,5.0,120.0,-9999.0,'1111122,1111122,1111122' 
COMPS,ioos:station:USF.COMPS:C12:1,2013-10-03T20:29:00Z,27.4980,-83.7220,3.0,5.0,120.0,-9999.0,'1111122,1111122,1111122' 
COMPS,ioos:station:USF.COMPS:C12:1,2013-10-03T21:29:00Z,27.4980,-83.7220,3.0,4.0,120.0,-9999.0,'1111122,1111122,1111122' 
COMPS,ioos:station:USF.COMPS:C12:1,2013-10-03T22:29:00Z,27.4980,-83.7220,3.0,3.0,100.0,-9999.0,'1111122,1111122,1111122' 
COMPS,ioos:station:USF.COMPS:C12:1,2013-10-03T23:29:00Z,27.4980,-83.7220,3.0,3.0,100.0,-9999.0,'1111122,1111122,1111122' 
COMPS,ioos:station:USF.COMPS:C12:1,2013-10-04T00:29:00Z,27.4980,-83.7220,3.0,3.0,80.0,-9999.0,'1111122,1111122,1111122' 
COMPS,ioos:station:USF.COMPS:C12:1,2013-10-04T01:29:00Z,27.4980,-83.7220,3.0,2.0,80.0,-9999.0,'1111122,1111122,1111122' 
COMPS,ioos:station:USF.COMPS:C12:1,2013-10-04T02:29:00Z,27.4980,-83.7220,3.0,3.0,60.0,-9999.0,'1111122,1111122,1111122' 
COMPS,ioos:station:USF.COMPS:C12:1,2013-10-04T03:29:00Z,27.4980,-83.7220,3.0,3.0,60.0,-9999.0,'1111122,1111122,1111122' 
COMPS,ioos:station:USF.COMPS:C12:1,2013-10-04T04:29:00Z,27.4980,-83.7220,3.0,5.0,70.0,-9999.0,'1111122,1111122,1111122' 
COMPS,ioos:station:USF.COMPS:C12:1,2013-10-04T05:29:00Z,27.4980,-83.7220,3.0,4.0,60.0,-9999.0,'1111122,1111122,1111122' 
COMPS,ioos:station:USF.COMPS:C12:1,2013-10-04T06:29:00Z,27.4980,-83.7220,3.0,5.0,60.0,-9999.0,'1111122,1111122,1111122' 
COMPS,ioos:station:USF.COMPS:C12:1,2013-10-04T07:29:00Z,27.4980,-83.7220,3.0,4.0,60.0,-9999.0,'1111122,1111122,1111122' 
COMPS,ioos:station:USF.COMPS:C12:1,2013-10-04T08:29:00Z,27.4980,-83.7220,3.0,4.0,70.0,-9999.0,'1111122,1111122,1111122' 
COMPS,ioos:station:USF.COMPS:C12:1,2013-10-04T09:29:00Z,27.4980,-83.7220,3.0,5.0,100.0,-9999.0,'1111122,1111122,1111122' 
COMPS,ioos:station:USF.COMPS:C12:1,2013-10-04T10:29:00Z,27.4980,-83.7220,3.0,6.0,110.0,-9999.0,'1111122,1111122,1111122' 
COMPS,ioos:station:USF.COMPS:C12:1,2013-10-04T11:29:00Z,27.4980,-83.7220,3.0,7.0,110.0,-9999.0,'1111122,1111122,1111122' 
COMPS,ioos:station:USF.COMPS:C12:1,2013-10-04T12:29:00Z,27.4980,-83.7220,3.0,6.0,120.0,-9999.0,'1111122,1111122,1111122' 
COMPS,ioos:station:USF.COMPS:C12:1,2013-10-04T13:29:00Z,27.4980,-83.7220,3.0,6.0,120.0,-9999.0,'1111122,1111122,1111122' 
COMPS,ioos:station:USF.COMPS:C12:1,2013-10-04T14:29:00Z,27.4980,-83.7220,3.0,6.0,120.0,-9999.0,'1111122,1111122,1111122' 
COMPS,ioos:station:USF.COMPS:C12:1,2013-10-04T15:29:00Z,27.4980,-83.7220,3.0,6.0,120.0,-9999.0,'1111122,1111122,1111122' 
COMPS,ioos:station:USF.COMPS:C12:1,2013-10-04T16:29:00Z,27.4980,-83.7220,3.0,6.0,110.0,-9999.0,'1111122,1111122,1111122' 
COMPS,ioos:station:USF.COMPS:C12:1,2013-10-04T17:29:00Z,27.4980,-83.7220,3.0,5.0,110.0,-9999.0,'1111122,1111122,1111122' 
COMPS,ioos:station:USF.COMPS:C12:1,2013-10-04T18:29:00Z,27.4980,-83.7220,3.0,5.0,100.0,-9999.0,'1111122,1111122,1111122' 
COMPS,ioos:station:USF.COMPS:C12:1,2013-10-04T19:29:00Z,27.4980,-83.7220,3.0,5.0,90.0,-9999.0,'1111122,1111122,1111122' 
COMPS,ioos:station:USF.COMPS:C12:1,2013-10-04T20:29:00Z,27.4980,-83.7220,3.0,4.0,90.0,-9999.0,'1111122,1111122,1111122' 
COMPS,ioos:station:USF.COMPS:C12:1,2013-10-04T21:29:00Z,27.4980,-83.7220,3.0,3.0,90.0,-9999.0,'1111122,1111122,1111122' 
COMPS,ioos:station:USF.COMPS:C12:1,2013-10-04T22:29:00Z,27.4980,-83.7220,3.0,1.0,80.0,-9999.0,'1111122,1111122,1111122' 
COMPS,ioos:station:USF.COMPS:C12:1,2013-10-04T23:29:00Z,27.4980,-83.7220,3.0,2.0,50.0,-9999.0,'1111122,1111122,1111122' 
COMPS,ioos:station:USF.COMPS:C12:1,2013-10-05T00:29:00Z,27.4980,-83.7220,3.0,2.0,40.0,-9999.0,'1111122,1111122,1111122' 
COMPS,ioos:station:USF.COMPS:C12:1,2013-10-05T01:29:00Z,27.4980,-83.7220,3.0,2.0,40.0,-9999.0,'1111122,1111122,1111122' 
COMPS,ioos:station:USF.COMPS:C12:1,2013-10-05T02:29:00Z,27.4980,-83.7220,3.0,1.0,30.0,-9999.0,'1111122,1111122,1111122' 
COMPS,ioos:station:USF.COMPS:C12:1,2013-10-05T03:29:00Z,27.4980,-83.7220,3.0,2.0,30.0,-9999.0,'1111122,1111122,1111122' 
COMPS,ioos:station:USF.COMPS:C12:1,2013-10-05T04:29:00Z,27.4980,-83.7220,3.0,3.0,40.0,-9999.0,'1111122,1111122,1111122' 
COMPS,ioos:station:USF.COMPS:C12:1,2013-10-05T05:29:00Z,27.4980,-83.7220,3.0,3.0,40.0,-9999.0,'1111122,1111122,1111122' 
COMPS,ioos:station:USF.COMPS:C12:1,2013-10-05T06:29:00Z,27.4980,-83.7220,3.0,7.0,70.0,-9999.0,'1111122,1111122,1111122' 
COMPS,ioos:station:USF.COMPS:C12:1,2013-10-05T07:29:00Z,27.4980,-83.7220,3.0,6.0,90.0,-9999.0,'1111122,1111122,1111122' 
COMPS,ioos:station:USF.COMPS:C12:1,2013-10-05T08:29:00Z,27.4980,-83.7220,3.0,7.0,110.0,-9999.0,'1111122,1111122,1111122' 
COMPS,ioos:station:USF.COMPS:C12:1,2013-10-05T09:29:00Z,27.4980,-83.7220,3.0,6.0,110.0,-9999.0,'1111122,1111122,1111122' 
COMPS,ioos:station:USF.COMPS:C12:1,2013-10-05T10:29:00Z,27.4980,-83.7220,3.0,6.0,110.0,-9999.0,'1111122,1111122,1111122' 
COMPS,ioos:station:USF.COMPS:C12:1,2013-10-05T11:29:00Z,27.4980,-83.7220,3.0,6.0,100.0,-9999.0,'1111122,1111122,1111122' 
COMPS,ioos:station:USF.COMPS:C12:1,2013-10-05T12:29:00Z,27.4980,-83.7220,3.0,6.0,110.0,-9999.0,'1111122,1111122,1111122' 
COMPS,ioos:station:USF.COMPS:C12:1,2013-10-05T13:29:00Z,27.4980,-83.7220,3.0,6.0,110.0,-9999.0,'1111122,1111122,1111122' 
COMPS,ioos:station:USF.COMPS:C12:1,2013-10-05T14:29:00Z,27.4980,-83.7220,3.0,5.0,110.0,-9999.0,'1111122,1111122,1111122' 
COMPS,ioos:station:USF.COMPS:C12:1,2013-10-05T15:29:00Z,27.4980,-83.7220,3.0,5.0,110.0,-9999.0,'1111122,1111122,1111122' 
COMPS,ioos:station:USF.COMPS:C12:1,2013-10-05T16:29:00Z,27.4980,-83.7220,3.0,5.0,120.0,-9999.0,'1111122,1111122,1111122' 
COMPS,ioos:station:USF.COMPS:C12:1,2013-10-05T17:29:00Z,27.4980,-83.7220,3.0,4.0,100.0,-9999.0,'1111122,1111122,1111122' 
COMPS,ioos:station:USF.COMPS:C12:1,2013-10-05T18:29:00Z,27.4980,-83.7220,3.0,4.0,100.0,-9999.0,'1111122,1111122,1111122' 
COMPS,ioos:station:USF.COMPS:C12:1,2013-10-05T19:29:00Z,27.4980,-83.7220,3.0,3.0,80.0,-9999.0,'1111122,1111122,1111122' 
COMPS,ioos:station:USF.COMPS:C12:1,2013-10-05T20:29:00Z,27.4980,-83.7220,3.0,3.0,80.0,-9999.0,'1111122,1111122,1111122' 
COMPS,ioos:station:USF.COMPS:C12:1,2013-10-05T21:29:00Z,27.4980,-83.7220,3.0,2.0,80.0,-9999.0,'1111122,1111122,1111122' 
COMPS,ioos:station:USF.COMPS:C12:1,2013-10-05T22:29:00Z,27.4980,-83.7220,3.0,1.0,40.0,-9999.0,'1111122,1111122,1111122' 
COMPS,ioos:station:USF.COMPS:C12:1,2013-10-05T23:29:00Z,27.4980,-83.7220,3.0,2.0,20.0,-9999.0,'1111122,1111122,1111122' 
COMPS,ioos:station:USF.COMPS:C12:1,2013-10-06T00:29:00Z,27.4980,-83.7220,3.0,3.0,20.0,-9999.0,'1111122,1111122,1111122' 
COMPS,ioos:station:USF.COMPS:C12:1,2013-10-06T01:29:00Z,27.4980,-83.7220,3.0,4.0,30.0,-9999.0,'1111122,1111122,1111122' 
COMPS,ioos:station:USF.COMPS:C12:1,2013-10-06T02:29:00Z,27.4980,-83.7220,3.0,4.0,30.0,-9999.0,'1111122,1111122,1111122' 
COMPS,ioos:station:USF.COMPS:C12:1,2013-10-06T03:29:00Z,27.4980,-83.7220,3.0,3.0,40.0,-9999.0,'1111122,1111122,1111122' 
COMPS,ioos:station:USF.COMPS:C12:1,2013-10-06T04:29:00Z,27.4980,-83.7220,3.0,4.0,40.0,-9999.0,'1111122,1111122,1111122' 
COMPS,ioos:station:USF.COMPS:C12:1,2013-10-06T05:29:00Z,27.4980,-83.7220,3.0,4.0,60.0,-9999.0,'1111122,1111122,1111122' 
COMPS,ioos:station:USF.COMPS:C12:1,2013-10-06T06:29:00Z,27.4980,-83.7220,3.0,8.0,110.0,-9999.0,'1111122,1111122,1111122' 
COMPS,ioos:station:USF.COMPS:C12:1,2013-10-06T07:29:00Z,27.4980,-83.7220,3.0,9.0,110.0,-9999.0,'1111122,1111122,1111122' 
COMPS,ioos:station:USF.COMPS:C12:1,2013-10-06T08:29:00Z,27.4980,-83.7220,3.0,8.0,110.0,-9999.0,'1111122,1111122,1111122' 
COMPS,ioos:station:USF.COMPS:C12:1,2013-10-06T09:29:00Z,27.4980,-83.7220,3.0,7.0,120.0,-9999.0,'1111122,1111122,1111122' 
COMPS,ioos:station:USF.COMPS:C12:1,2013-10-06T10:29:00Z,27.4980,-83.7220,3.0,6.0,130.0,-9999.0,'1111122,1111122,1111122' 
COMPS,ioos:station:USF.COMPS:C12:1,2013-10-06T11:29:00Z,27.4980,-83.7220,3.0,5.0,130.0,-9999.0,'1111122,1111122,1111122' 
COMPS,ioos:station:USF.COMPS:C12:1,2013-10-06T12:29:00Z,27.4980,-83.7220,3.0,6.0,130.0,-9999.0,'1111122,1111122,1111122' 
COMPS,ioos:station:USF.COMPS:C12:1,2013-10-06T13:29:00Z,27.4980,-83.7220,3.0,5.0,130.0,-9999.0,'1111122,1111122,1111122' 
COMPS,ioos:station:USF.COMPS:C12:1,2013-10-06T14:29:00Z,27.4980,-83.7220,3.0,5.0,130.0,-9999.0,'1111122,1111122,1111122' 
COMPS,ioos:station:USF.COMPS:C12:1,2013-10-06T15:29:00Z,27.4980,-83.7220,3.0,6.0,130.0,-9999.0,'1111122,1111122,1111122' 
COMPS,ioos:station:USF.COMPS:C12:1,2013-10-06T16:29:00Z,27.4980,-83.7220,3.0,3.0,130.0,-9999.0,'1111122,1111122,1111122' 
COMPS,ioos:station:USF.COMPS:C12:1,2013-10-06T17:29:00Z,27.4980,-83.7220,3.0,5.0,180.0,-9999.0,'1111122,1111122,1111122' 
COMPS,ioos:station:USF.COMPS:C12:1,2013-10-06T18:29:00Z,27.4980,-83.7220,3.0,4.0,180.0,-9999.0,'1111122,1111122,1111122' 
COMPS,ioos:station:USF.COMPS:C12:1,2013-10-06T19:29:00Z,27.4980,-83.7220,3.0,5.0,180.0,-9999.0,'1111122,1111122,1111122' 
COMPS,ioos:station:USF.COMPS:C12:1,2013-10-06T20:29:00Z,27.4980,-83.7220,3.0,5.0,190.0,-9999.0,'1111122,1111122,1111122' 
COMPS,ioos:station:USF.COMPS:C12:1,2013-10-06T21:29:00Z,27.4980,-83.7220,3.0,5.0,190.0,-9999.0,'1111122,1111122,1111122' 
COMPS,ioos:station:USF.COMPS:C12:1,2013-10-06T22:29:00Z,27.4980,-83.7220,3.0,5.0,180.0,-9999.0,'1111122,1111122,1111122' 
COMPS,ioos:station:USF.COMPS:C12:1,2013-10-06T23:29:00Z,27.4980,-83.7220,3.0,5.0,180.0,-9999.0,'1111122,1111122,1111122' 
COMPS,ioos:station:USF.COMPS:C12:1,2013-10-07T00:29:00Z,27.4980,-83.7220,3.0,5.0,160.0,-9999.0,'1111122,1111122,1111122' 
COMPS,ioos:station:USF.COMPS:C12:1,2013-10-07T01:29:00Z,27.4980,-83.7220,3.0,5.0,160.0,-9999.0,'1111122,1111122,1111122' 
COMPS,ioos:station:USF.COMPS:C12:1,2013-10-07T02:29:00Z,27.4980,-83.7220,3.0,5.0,180.0,-9999.0,'1111122,1111122,1111122' 
COMPS,ioos:station:USF.COMPS:C12:1,2013-10-07T04:29:00Z,27.4980,-83.7220,3.0,8.0,200.0,-9999.0,'1111122,1111122,1111122' 
COMPS,ioos:station:USF.COMPS:C12:1,2013-10-07T06:29:00Z,27.4980,-83.7220,3.0,4.0,190.0,-9999.0,'1111122,1111122,1111122' 
COMPS,ioos:station:USF.COMPS:C12:1,2013-10-07T07:29:00Z,27.4980,-83.7220,3.0,5.0,170.0,-9999.0,'1111122,1111122,1111122' 
COMPS,ioos:station:USF.COMPS:C12:1,2013-10-07T08:29:00Z,27.4980,-83.7220,3.0,7.0,210.0,-9999.0,'1111122,1111122,1111122' 
COMPS,ioos:station:USF.COMPS:C12:1,2013-10-07T09:29:00Z,27.4980,-83.7220,3.0,9.0,220.0,-9999.0,'1111122,1111122,1111122' 
COMPS,ioos:station:USF.COMPS:C12:1,2013-10-07T10:29:00Z,27.4980,-83.7220,3.0,8.0,190.0,-9999.0,'1111122,1111122,1111122' 
COMPS,ioos:station:USF.COMPS:C12:1,2013-10-07T11:29:00Z,27.4980,-83.7220,3.0,10.0,190.0,-9999.0,'1111122,1111122,1111122' 
COMPS,ioos:station:USF.COMPS:C12:1,2013-10-07T12:29:00Z,27.4980,-83.7220,3.0,14.0,200.0,-9999.0,'1111122,1111122,1111122' 
COMPS,ioos:station:USF.COMPS:C12:1,2013-10-07T13:29:00Z,27.4980,-83.7220,3.0,11.0,210.0,-9999.0,'1111122,1111122,1111122' 
COMPS,ioos:station:USF.COMPS:C12:1,2013-10-07T14:29:00Z,27.4980,-83.7220,3.0,10.0,210.0,-9999.0,'1111122,1111122,1111122' 
COMPS,ioos:station:USF.COMPS:C12:1,2013-10-07T15:29:00Z,27.4980,-83.7220,3.0,9.0,230.0,-9999.0,'1111122,1111122,1111122' 
COMPS,ioos:station:USF.COMPS:C12:1,2013-10-07T16:29:00Z,27.4980,-83.7220,3.0,9.0,230.0,-9999.0,'1111122,1111122,1111122' 
COMPS,ioos:station:USF.COMPS:C12:1,2013-10-07T17:29:00Z,27.4980,-83.7220,3.0,9.0,250.0,-9999.0,'1111122,1111122,1111122' 
COMPS,ioos:station:USF.COMPS:C12:1,2013-10-07T18:29:00Z,27.4980,-83.7220,3.0,10.0,260.0,-9999.0,'1111122,1111122,1111122' 
COMPS,ioos:station:USF.COMPS:C12:1,2013-10-07T19:29:00Z,27.4980,-83.7220,3.0,10.0,270.0,-9999.0,'1111122,1111122,1111122' 
COMPS,ioos:station:USF.COMPS:C12:1,2013-10-07T20:29:00Z,27.4980,-83.7220,3.0,10.0,280.0,-9999.0,'1111122,1111122,1111122' 
COMPS,ioos:station:USF.COMPS:C12:1,2013-10-07T21:29:00Z,27.4980,-83.7220,3.0,9.0,280.0,-9999.0,'1111122,1111122,1111122' 
COMPS,ioos:station:USF.COMPS:C12:1,2013-10-07T22:29:00Z,27.4980,-83.7220,3.0,8.0,280.0,-9999.0,'1111122,1111122,1111122' 
COMPS,ioos:station:USF.COMPS:C12:1,2013-10-08T00:29:00Z,27.4980,-83.7220,3.0,9.0,280.0,-9999.0,'1111122,1111122,1111122' 
COMPS,ioos:station:USF.COMPS:C12:1,2013-10-08T01:29:00Z,27.4980,-83.7220,3.0,8.0,280.0,-9999.0,'1111122,1111122,1111122' 
COMPS,ioos:station:USF.COMPS:C12:1,2013-10-08T02:29:00Z,27.4980,-83.7220,3.0,9.0,280.0,-9999.0,'1111122,1111122,1111122' 
COMPS,ioos:station:USF.COMPS:C12:1,2013-10-08T03:29:00Z,27.4980,-83.7220,3.0,9.0,270.0,-9999.0,'1111122,1111122,1111122' 
COMPS,ioos:station:USF.COMPS:C12:1,2013-10-08T04:29:00Z,27.4980,-83.7220,3.0,8.0,270.0,-9999.0,'1111122,1111122,1111122' 
COMPS,ioos:station:USF.COMPS:C12:1,2013-10-08T05:29:00Z,27.4980,-83.7220,3.0,8.0,270.0,-9999.0,'1111122,1111122,1111122' 
COMPS,ioos:station:USF.COMPS:C12:1,2013-10-08T06:29:00Z,27.4980,-83.7220,3.0,8.0,280.0,-9999.0,'1111122,1111122,1111122' 
COMPS,ioos:station:USF.COMPS:C12:1,2013-10-08T07:29:00Z,27.4980,-83.7220,3.0,7.0,280.0,-9999.0,'1111122,1111122,1111122' 
COMPS,ioos:station:USF.COMPS:C12:1,2013-10-08T08:29:00Z,27.4980,-83.7220,3.0,7.0,280.0,-9999.0,'1111122,1111122,1111122' 
COMPS,ioos:station:USF.COMPS:C12:1,2013-10-08T09:29:00Z,27.4980,-83.7220,3.0,7.0,270.0,-9999.0,'1111122,1111122,1111122' 
COMPS,ioos:station:USF.COMPS:C12:1,2013-10-08T10:29:00Z,27.4980,-83.7220,3.0,5.0,260.0,-9999.0,'1111122,1111122,1111122' 
COMPS,ioos:station:USF.COMPS:C12:1,2013-10-08T12:29:00Z,27.4980,-83.7220,3.0,5.0,250.0,-9999.0,'1111122,1111122,1111122' 
COMPS,ioos:station:USF.COMPS:C12:1,2013-10-08T13:29:00Z,27.4980,-83.7220,3.0,4.0,250.0,-9999.0,'1111122,1111122,1111122' 
COMPS,ioos:station:USF.COMPS:C12:1,2013-10-08T14:29:00Z,27.4980,-83.7220,3.0,1.0,300.0,-9999.0,'1111122,1111122,1111122' 
COMPS,ioos:station:USF.COMPS:C12:1,2013-10-08T15:29:00Z,27.4980,-83.7220,3.0,3.0,300.0,-9999.0,'1111122,1111122,1111122' 
COMPS,ioos:station:USF.COMPS:C12:1,2013-10-08T16:29:00Z,27.4980,-83.7220,3.0,3.0,280.0,-9999.0,'1111122,1111122,1111122' 
COMPS,ioos:station:USF.COMPS:C12:1,2013-10-08T17:29:00Z,27.4980,-83.7220,3.0,3.0,340.0,-9999.0,'1111122,1111122,1111122' 
COMPS,ioos:station:USF.COMPS:C12:1,2013-10-08T18:29:00Z,27.4980,-83.7220,3.0,3.0,320.0,-9999.0,'1111122,1111122,1111122' 
COMPS,ioos:station:USF.COMPS:C12:1,2013-10-08T20:29:00Z,27.4980,-83.7220,3.0,4.0,300.0,-9999.0,'1111122,1111122,1111122' 
COMPS,ioos:station:USF.COMPS:C12:1,2013-10-08T21:29:00Z,27.4980,-83.7220,3.0,5.0,310.0,-9999.0,'1111122,1111122,1111122' 
COMPS,ioos:station:USF.COMPS:C12:1,2013-10-09T00:29:00Z,27.4980,-83.7220,3.0,7.0,360.0,-9999.0,'1111122,1111122,1111122' 
COMPS,ioos:station:USF.COMPS:C12:1,2013-10-09T01:29:00Z,27.4980,-83.7220,3.0,6.0,360.0,-9999.0,'1111122,1111122,1111122' 
COMPS,ioos:station:USF.COMPS:C12:1,2013-10-09T02:29:00Z,27.4980,-83.7220,3.0,6.0,10.0,-9999.0,'1111122,1111122,1111122' 
COMPS,ioos:station:USF.COMPS:C12:1,2013-10-09T03:29:00Z,27.4980,-83.7220,3.0,6.0,20.0,-9999.0,'1111122,1111122,1111122' 
COMPS,ioos:station:USF.COMPS:C12:1,2013-10-09T04:29:00Z,27.4980,-83.7220,3.0,8.0,50.0,-9999.0,'1111122,1111122,1111122' 
COMPS,ioos:station:USF.COMPS:C12:1,2013-10-09T06:29:00Z,27.4980,-83.7220,3.0,7.0,60.0,-9999.0,'1111122,1111122,1111122' 
COMPS,ioos:station:USF.COMPS:C12:1,2013-10-09T07:29:00Z,27.4980,-83.7220,3.0,7.0,60.0,-9999.0,'1111122,1111122,1111122' 
COMPS,ioos:station:USF.COMPS:C12:1,2013-10-09T08:29:00Z,27.4980,-83.7220,3.0,6.0,60.0,-9999.0,'1111122,1111122,1111122' 
COMPS,ioos:station:USF.COMPS:C12:1,2013-10-09T09:29:00Z,27.4980,-83.7220,3.0,6.0,60.0,-9999.0,'1111122,1111122,1111122' 
COMPS,ioos:station:USF.COMPS:C12:1,2013-10-09T10:29:00Z,27.4980,-83.7220,3.0,7.0,60.0,-9999.0,'1111122,1111122,1111122' 
COMPS,ioos:station:USF.COMPS:C12:1,2013-10-09T11:29:00Z,27.4980,-83.7220,3.0,5.0,50.0,-9999.0,'1111122,1111122,1111122' 
COMPS,ioos:station:USF.COMPS:C12:1,2013-10-09T12:29:00Z,27.4980,-83.7220,3.0,7.0,50.0,-9999.0,'1111122,1111122,1111122' 
COMPS,ioos:station:USF.COMPS:C12:1,2013-10-09T13:29:00Z,27.4980,-83.7220,3.0,6.0,50.0,-9999.0,'1111122,1111122,1111122' 
COMPS,ioos:station:USF.COMPS:C12:1,2013-10-09T14:29:00Z,27.4980,-83.7220,3.0,7.0,60.0,-9999.0,'1111122,1111122,1111122' 
COMPS,ioos:station:USF.COMPS:C12:1,2013-10-09T15:29:00Z,27.4980,-83.7220,3.0,6.0,40.0,-9999.0,'1111122,1111122,1111122' 